Regional Weather Roundup
Issued by NWS Memphis, TN

Home | Current Version | Previous Version | Text Only | Print | Product List | Glossary On
Versions: 1 2 3 4 5 6 7 8 9 10 11 12 13 14 15 16 17 18 19 20 21 22 23 24 25 26 27 28 29 30 31 32 33 34 35 36 37 38 39 40 41 42 43 44 45 46 47 48 49 50
000
ASUS44 KMEG 021010
RWRMEG
MEMPHIS CWA HOURLY WEATHER ROUNDUP
NATIONAL WEATHER SERVICE MEMPHIS TN
500 AM CDT SUN AUG 02 2015

...WEST TENNESSEE...

CITY           SKY/WX    TMP DP  RH WIND       PRES   REMARKS
MEMPHIS INTL   CLEAR     78  67  68 E3        29.95F
NWS MEMPHIS      N/A     70 N/A N/A MISG        N/A
JACKSON        CLEAR     70  66  87 CALM      29.96F
LEXINGTON      CLEAR     66  66 100 CALM      29.96S
DYERSBURG        N/A    N/A N/A N/A MISG        N/A
PARIS          CLEAR     66  63  88 CALM      29.98S


...EASTERN ARKANSAS...

CITY           SKY/WX    TMP DP  RH WIND       PRES   REMARKS
JONESBORO      CLEAR     70  68  93 CALM      29.96R
WEST MEMPHIS   CLEAR     71  70  96 CALM      29.94S
BATESVILLE     CLEAR     68  66  94 CALM      29.97S
NEWPORT        CLEAR     74  73  96 CALM      29.97S
WALNUT RIDGE   CLEAR     73  68  83 CALM      29.96S
BLYTHEVILLE    CLEAR     75  71  87 S3        29.96S
SEARCY         CLEAR     69  66  90 CALM      29.97S
STUTTGART      CLEAR     72  66  83 CALM      29.95S
PINE BLUFF     CLEAR     68  66  93 CALM      29.95S
MONTICELLO     CLEAR     68  66  93 CALM      29.95R


...NORTH MISSISSIPPI...

CITY           SKY/WX    TMP DP  RH WIND       PRES   REMARKS
TUPELO         CLEAR     70  66  87 NE7       29.94S
OLIVE BRANCH     N/A     72  72 100 CALM      29.96S
TUNICA         CLEAR     68  68 100 N5        29.95S
CLARKSDALE       N/A     68  68 100 CALM      29.96R
CORINTH        CLEAR     68  66  94 CALM      29.95S FOG
GREENWOOD      CLEAR     67  64  90 N3        29.93S
COLUMBUS       CLEAR     70  68  93 CALM      29.92S
STARKVILLE     FAIR      66  64  94 CALM      29.94R
GOLDEN TRIANGL CLEAR     66  63  88 NW3       29.92S


...SOUTHEAST MISSOURI...

CITY           SKY/WX    TMP DP  RH WIND       PRES   REMARKS
WEST PLAINS    PTCLDY    69  65  86 CALM      30.01S
POPLAR BLUFF   CLEAR     72  71  97 CALM      29.95S
CAPE GIRARDEAU PTCLDY    71  70  96 CALM      29.95S


...NORTHWEST ALABAMA...

CITY           SKY/WX    TMP DP  RH WIND       PRES   REMARKS
MUSCLE SHOALS  CLEAR     69  66  90 NW3       29.97S


...MIDDLE TENNESSEE...

CITY           SKY/WX    TMP DP  RH WIND       PRES   REMARKS
NASHVILLE      PTCLDY    64  63  96 CALM      29.98S
CLARKSVILLE    CLEAR     62  61  96 CALM      29.98S
COLUMBIA       MOCLDY    66  66 100 CALM      29.97S


...WESTERN KENTUCKY...

CITY           SKY/WX    TMP DP  RH WIND       PRES   REMARKS
PADUCAH        CLEAR     68  65  90 CALM      29.95S
FORT CAMPBELL  CLEAR     64  63  95 CALM      29.98R


...CENTRAL ARKANSAS...

CITY           SKY/WX    TMP DP  RH WIND       PRES   REMARKS
LITTLE ROCK    PTCLDY    72  67  84 CALM      29.96S


SKY/WX REPORTED AS FAIR MEANS FEW OR NO CLOUDS BELOW
12 THOUSAND FEET.



USA.gov is the U.S. government's official web portal to all federal, state and local government web resources and services.